De Kalb, MO (64440)

2:23 PM CDT on August 04, 2015 (GMT -0500)
APRSWXNET | | Change Station
CLOSE
Current Station
Personal Weather Station
Location: Rushville, MO
Elevation: 794 ft
Nearby Weather Stations
Active Advisory: Flood Warning

Elev 794 ft 39.66 °N, 95.01 °W | Updated 26 minutes ago

Mostly Cloudy
Mostly Cloudy
81 °F
Feels Like 86 °F
N
0
Wind Variable Wind from SSE
Gusts 0.0 mph

Today
High -- | Low -- °F
--% Chance of Precip.
Yesterday
High -- | Low -- °F
Precip. -- in
6:21 AM 8:29 PM
Waning Gibbous, 75% visible
Pressure 29.95 in
Visibility 10.0 miles
Clouds Few 5000 ft
Heat Index 86 °F
Dew Point 73 °F
Humidity 77%
Rainfall in
Snow Depth Not available.
UV 10 out of 12
Pollen 6.50 out of 12
Air Quality Not available.
Flu Activity Not available.
METAR KSTJ 041853Z 13011KT 10SM FEW050 27/21 A2997 RMK AO2 SLP141 T02720211

More Conditions Fewer Conditions

Pressure 29.95 in
Visibility 10.0 miles
Clouds Few 5000 ft
Heat Index 86 °F
Dew Point 73 °F
Humidity 77%
Rainfall in
Snow Depth Not available.
UV 10 out of 12
Pollen 6.50 out of 12
Air Quality Not available.
Flu Activity Not available.
METAR KSTJ 041853Z 13011KT 10SM FEW050 27/21 A2997 RMK AO2 SLP141 T02720211

More Conditions Fewer Conditions

10-Day Weather Forecast

×

Almanac

Astronomy

Aug. 04, 2015 Rise Set
Actual Time
Civil Twilight
Nautical Twilight
Astronomical Twilight
Moon
Length of Visible Light
Length of Day
Tomorrow will be .
, % of the Moon is Illuminated

Today's Extremes

State Highs State Lows

Community

WunderPhotos

Upload Photos

1,843,954 photos uploaded!

WunderBlogs® & News

Nearby

Air Quality

  Air Quality AQ Index Pollutant
Not available.

Snow Depth

Station Depth Elevation

Earthquake Activity

City Distance Mag. Time & Date
Minimum magnitude displayed is 2.5.

Coastal Water Temperatures

Place Temperature

Stations

Nearby Weather Stations

Station Location Temp. Windchill Dew Point Humidity Wind Precip. Elev Updated Type
                   
Flood Warning
Statement as of 9:54 AM CDT on August 04, 2015

The Flood Warning continues for
the Platte River near agency.
* Until Thursday morning.
* At 9:30 am Tuesday the stage was 22.8 feet.
* Flood stage is 20.0 feet.
* Minor flooding is occurring and minor flooding is forecast.
* Forecast... the river will continue to fall to below flood stage by
late Wednesday morning.
* At 20.0 feet... low-lying areas east of agency begin to flood.

                       Latest
location fs stage day/time forecast

Platte River
agency 20 22.8 Tue 09 am 22.4 this afternoon


lat... Lon 3977 9480 3977 9471 3951 9464 3941 9464 3941 9472